When you browse on this site, cookies collect data to enhance your experience and personalize the content and advertising you see.
Visit our Privacy Policy to learn more. By continuing to use the site, you agree to this use of cookies and data.
EN

Hourly Weather Radcliffe

Today, 4 August, Tuesday

Time Temperature Precipitation Wind Pressure Humidity
00:00 +12°C° 0 mm 1 mps 754 mmHg 81%
01:00 +12°C° 0 mm 1 mps 754 mmHg 80%
02:00 +12°C° 0 mm 1 mps 754 mmHg 80%
03:00 +12°C° 0 mm 2 mps 754 mmHg 80%
04:00 +12°C° 0 mm 2 mps 754 mmHg 78%
05:00 +12°C° 0 mm 2 mps 753 mmHg 77%
06:00 +12°C° 0 mm 2 mps 753 mmHg 76%
07:00 +12°C° 0.1 mm 3 mps 753 mmHg 77%
08:00 +12°C° 0.1 mm 3 mps 753 mmHg 78%
09:00 +12°C° 0.1 mm 3 mps 752 mmHg 79%
10:00 +13°C° 0 mm 4 mps 752 mmHg 77%
11:00 +14°C° 0 mm 5 mps 751 mmHg 75%
12:00 +15°C° 0 mm 6 mps 751 mmHg 73%
13:00 +16°C° 0 mm 6 mps 750 mmHg 73%
14:00 +17°C° 0 mm 6 mps 750 mmHg 73%
15:00 +19°C° 0 mm 6 mps 749 mmHg 73%
16:00 +19°C° 0 mm 6 mps 749 mmHg 74%
17:00 +19°C° 0 mm 6 mps 748 mmHg 76%
18:00 +19°C° 0 mm 6 mps 748 mmHg 77%
19:00 +19°C° 0 mm 6 mps 748 mmHg 78%
20:00 +17°C° 0 mm 6 mps 748 mmHg 79%
21:00 +16°C° 0 mm 6 mps 748 mmHg 81%
22:00 +16°C° 0 mm 6 mps 748 mmHg 81%
23:00 +16°C° 0 mm 6 mps 748 mmHg 82%

Tomorrow, 5 August, Wednesday

Time Temperature Precipitation Wind Pressure Humidity
00:00 +16°C° 0 mm 6 mps 748 mmHg 82%
01:00 +16°C° 0.2 mm 5 mps 748 mmHg 83%
02:00 +15°C° 0.2 mm 5 mps 748 mmHg 84%
03:00 +15°C° 0.2 mm 5 mps 748 mmHg 84%
04:00 +15°C° 0 mm 5 mps 748 mmHg 84%
05:00 +15°C° 0 mm 5 mps 747 mmHg 84%
06:00 +16°C° 0 mm 6 mps 747 mmHg 83%
07:00 +16°C° 0 mm 6 mps 748 mmHg 81%
08:00 +17°C° 0 mm 6 mps 748 mmHg 78%
09:00 +19°C° 0 mm 6 mps 748 mmHg 76%
10:00 +20°C° 0 mm 6 mps 748 mmHg 72%
11:00 +21°C° 0 mm 6 mps 748 mmHg 69%
12:00 +22°C° 0 mm 6 mps 748 mmHg 65%
13:00 +23°C° 0 mm 6 mps 748 mmHg 63%
14:00 +23°C° 0 mm 7 mps 748 mmHg 62%
15:00 +24°C° 0 mm 7 mps 749 mmHg 60%
16:00 +23°C° 0.4 mm 6 mps 749 mmHg 66%
17:00 +22°C° 0.4 mm 6 mps 749 mmHg 72%
18:00 +21°C° 0.4 mm 5 mps 749 mmHg 79%
19:00 +20°C° 0.5 mm 5 mps 749 mmHg 82%
20:00 +19°C° 0.5 mm 4 mps 750 mmHg 84%
21:00 +19°C° 0.5 mm 4 mps 750 mmHg 87%
22:00 +19°C° 0.1 mm 3 mps 750 mmHg 89%
23:00 +18°C° 0.1 mm 3 mps 750 mmHg 90%

Day after tomorrow, 6 August, Thursday

Time Temperature Precipitation Wind Pressure Humidity
00:00 +18°C° 0.1 mm 3 mps 751 mmHg 91%
01:00 +18°C° 0 mm 3 mps 751 mmHg 92%
02:00 +18°C° 0 mm 2 mps 751 mmHg 93%
03:00 +17°C° 0 mm 2 mps 752 mmHg 93%
04:00 +17°C° 0 mm 2 mps 752 mmHg 93%
05:00 +17°C° 0 mm 2 mps 752 mmHg 93%
06:00 +17°C° 0 mm 2 mps 753 mmHg 93%
07:00 +19°C° 0 mm 2 mps 753 mmHg 88%
08:00 +20°C° 0 mm 2 mps 753 mmHg 83%
09:00 +21°C° 0 mm 3 mps 754 mmHg 78%
10:00 +22°C° 0 mm 3 mps 754 mmHg 75%
11:00 +24°C° 0 mm 3 mps 754 mmHg 72%
12:00 +25°C° 0 mm 4 mps 754 mmHg 69%
13:00 +25°C° 0.3 mm 4 mps 754 mmHg 69%
14:00 +25°C° 0.3 mm 4 mps 753 mmHg 69%
15:00 +26°C° 0.3 mm 4 mps 753 mmHg 70%
16:00 +26°C° 0.2 mm 4 mps 753 mmHg 69%
17:00 +26°C° 0.2 mm 3 mps 753 mmHg 67%
18:00 +26°C° 0.2 mm 3 mps 753 mmHg 66%
19:00 +24°C° 0 mm 2 mps 753 mmHg 70%
20:00 +23°C° 0 mm 2 mps 754 mmHg 73%
21:00 +21°C° 0 mm 1 mps 754 mmHg 76%
22:00 +21°C° 0 mm 1 mps 754 mmHg 79%
23:00 +20°C° 0 mm 1 mps 754 mmHg 82%

7 August, Friday

Time Temperature Precipitation Wind Pressure Humidity
00:00 +19°C° 0 mm 1 mps 754 mmHg 85%
01:00 +19°C° 0 mm 1 mps 754 mmHg 87%
02:00 +19°C° 0 mm 1 mps 754 mmHg 88%
03:00 +18°C° 0 mm 1 mps 754 mmHg 89%
04:00 +18°C° 0 mm 1 mps 754 mmHg 88%
05:00 +19°C° 0 mm 1 mps 755 mmHg 88%
06:00 +19°C° 0 mm 1 mps 755 mmHg 87%
07:00 +20°C° 0 mm 1 mps 755 mmHg 79%
08:00 +22°C° 0 mm 1 mps 755 mmHg 70%
09:00 +23°C° 0 mm 1 mps 755 mmHg 62%
10:00 +24°C° 0 mm 2 mps 755 mmHg 59%
11:00 +25°C° 0 mm 2 mps 755 mmHg 57%
12:00 +26°C° 0 mm 2 mps 755 mmHg 54%
13:00 +27°C° 0 mm 2 mps 755 mmHg 54%
14:00 +28°C° 0 mm 2 mps 754 mmHg 53%
15:00 +28°C° 0 mm 2 mps 754 mmHg 53%
16:00 +28°C° 0.1 mm 2 mps 754 mmHg 56%
17:00 +28°C° 0.1 mm 2 mps 754 mmHg 60%
18:00 +27°C° 0.1 mm 1 mps 754 mmHg 63%
19:00 +26°C° 0.1 mm 1 mps 754 mmHg 67%
20:00 +24°C° 0.1 mm 1 mps 754 mmHg 71%
21:00 +23°C° 0.1 mm 2 mps 754 mmHg 75%
22:00 +21°C° 0.2 mm 2 mps 754 mmHg 78%
23:00 +20°C° 0.2 mm 2 mps 754 mmHg 80%

8 August, Saturday

Time Temperature Precipitation Wind Pressure Humidity
00:00 +19°C° 0.2 mm 2 mps 754 mmHg 82%
01:00 +18°C° 0 mm 2 mps 754 mmHg 85%
02:00 +18°C° 0 mm 2 mps 754 mmHg 88%
03:00 +17°C° 0 mm 2 mps 754 mmHg 90%
04:00 +17°C° 0 mm 2 mps 754 mmHg 90%
05:00 +17°C° 0 mm 3 mps 754 mmHg 90%
06:00 +17°C° 0 mm 3 mps 755 mmHg 89%
07:00 +18°C° 0 mm 4 mps 755 mmHg 84%
08:00 +17°C° 0 mm 5 mps 755 mmHg 80%
09:00 +17°C° 0 mm 5 mps 756 mmHg 75%
10:00 +17°C° 0 mm 5 mps 756 mmHg 69%
11:00 +19°C° 0 mm 6 mps 756 mmHg 63%
12:00 +19°C° 0 mm 6 mps 756 mmHg 58%
13:00 +19°C° 0 mm 6 mps 756 mmHg 58%
14:00 +19°C° 0 mm 6 mps 757 mmHg 58%
15:00 +19°C° 0 mm 6 mps 757 mmHg 58%
16:00 +19°C° 0 mm 6 mps 757 mmHg 60%
17:00 +17°C° 0 mm 5 mps 758 mmHg 63%
18:00 +16°C° 0 mm 5 mps 758 mmHg 65%
19:00 +15°C° 0 mm 4 mps 758 mmHg 69%
20:00 +14°C° 0 mm 3 mps 759 mmHg 73%
21:00 +14°C° 0 mm 2 mps 759 mmHg 76%
22:00 +14°C° 0 mm 2 mps 759 mmHg 78%
23:00 +13°C° 0 mm 1 mps 760 mmHg 80%

9 August, Sunday

Time Temperature Precipitation Wind Pressure Humidity
00:00 +13°C° 0 mm 1 mps 760 mmHg 81%
01:00 +13°C° 0 mm 1 mps 760 mmHg 82%
02:00 +13°C° 0 mm 1 mps 760 mmHg 83%
03:00 +11°C° 0 mm 0 mps 760 mmHg 84%
04:00 +12°C° 0 mm 0 mps 760 mmHg 83%
05:00 +12°C° 0 mm 0 mps 760 mmHg 83%
06:00 +12°C° 0 mm 0 mps 760 mmHg 82%
07:00 +14°C° 0 mm 0 mps 760 mmHg 74%
08:00 +16°C° 0 mm 0 mps 760 mmHg 67%
09:00 +19°C° 0 mm 1 mps 760 mmHg 60%
10:00 +20°C° 0 mm 1 mps 760 mmHg 55%
11:00 +21°C° 0 mm 1 mps 760 mmHg 50%
12:00 +22°C° 0 mm 1 mps 760 mmHg 44%
13:00 +22°C° 0 mm 1 mps 760 mmHg 44%
14:00 +21°C° 0 mm 2 mps 759 mmHg 44%
15:00 +23°C° 0 mm 2 mps 759 mmHg 45%
16:00 +21°C° 0 mm 2 mps 759 mmHg 49%
17:00 +20°C° 0 mm 2 mps 759 mmHg 53%
18:00 +20°C° 0 mm 2 mps 759 mmHg 58%
19:00 +18°C° 0 mm 2 mps 759 mmHg 60%
20:00 +18°C° 0 mm 1 mps 759 mmHg 62%
21:00 +16°C° 0 mm 1 mps 759 mmHg 64%
22:00 +15°C° 0 mm 1 mps 759 mmHg 67%
23:00 +14°C° 0 mm 1 mps 759 mmHg 69%
Show more